Tracking 30995 objects as of 7-Jul-2025
HD Live streaming from Space Station
objects crossing your sky now

ARIANE 5 DEB (SYLDA)

Track ARIANE 5 DEB (SYLDA) now!


NORAD ID: 27952
Int'l Code: 2003-043F
Perigee: 677.2 km
Apogee: 35,592.5 km
Inclination: 7.4 °
Period: 636.3 minutes
Semi major axis: 24505 km
RCS: 17.0078 m2 (large)
Launch date: September 27, 2003
Source: France (FR)
Launch site: FRENCH GUIANA (FRGUI)

Note: This is SATELLITE DEBRIS
Your satellite tracking list
Your tracking list is empty




NASA's NSSDC Master Catalog

Two Line Element Set (TLE):
1 27952U 03043F   25186.11152717 -.00000134  00000-0 -11175-2 0  9999
2 27952   7.4084  72.8045 7123863 267.0791  16.8321  2.26306925179607
Source of the keplerian elements: AFSPC